Weather History for Fayetteville, AR

Change the Weather History Date:

Wednesday, October 9, 2013

  Actual Average Record
Temperature  
Mean Temperature 57 °F 60 °F  
Max Temperature 76 °F 72 °F 92 °F (1966)
Min Temperature 38 °F 47 °F 24 °F (2000)
Degree Days  
Heating Degree Days 8 6  
Month to date heating degree days 44 49  
Since 1 July heating degree days 56 101  
Cooling Degree Days 0 1  
Month to date cooling degree days 38 12  
Year to date cooling degree days 1384 1295  
Growing Degree Days 7 (Base 50)    
Moisture  
Dew Point 44 °F    
Average Humidity 67    
Maximum Humidity 100    
Minimum Humidity 33    
Precipitation  
Precipitation 0.00 in 0.14 in 1.90 in (2003)
Month to date precipitation 2.60 1.32  
Year to date precipitation 37.34 38.03  
Sea Level Pressure  
Sea Level Pressure 30.09 in    
Wind  
Wind Speed 2 mph (South)    
Max Wind Speed 23 mph    
Max Gust Speed 33 mph    
Visibility 6 miles    
Events Fog    
T = Trace of Precipitation, MM = Missing Value Source: NWS Daily Summary

Daily Weather History Graph

Daily Weather History Graph

Search for Another Location

Airport:

Trip Planner

Search our weather history database for the weather conditions in past years. The results will help you decide how hot, cold, wet, or windy it might be!

Date:

Astronomy

Oct. 09, 2013 Rise Set
Actual Time 7:18 AM CDT 6:48 PM CDT
Civil Twilight 6:52 AM CDT 7:14 PM CDT
Nautical Twilight 6:23 AM CDT 7:43 PM CDT
Astronomical Twilight 5:53 AM CDT 8:13 PM CDT
Moon 12:07 PM CDT (10/9) 10:31 PM CDT (10/9)
Length of Visible Light 12h 21m
Length of Day
11h 30m
Waxing Crescent, 25% of the Moon is Illuminated
Oct 9
Waxing Crescent
Oct 11
First Quarter
Oct 18
Full
Oct 26
Last Quarter
Nov 3
New

Hourly Weather History & Observations

Time (CDT) Temp. Dew Point Humidity Pressure Visibility Wind Dir Wind Speed Gust Speed Precip Events Conditions
12:53 AM 45.0 °F 45.0 °F 100% 30.07 in 10.0 mi Calm Calm - N/A   Clear
1:00 AM 46.4 °F 44.6 °F 93% 30.09 in 2.5 mi Calm Calm - N/A   Partly Cloudy
1:04 AM 46.4 °F 46.4 °F 100% 30.08 in 1.0 mi Calm Calm - N/A   Mist
1:12 AM 46.4 °F 44.6 °F 93% 30.08 in 2.0 mi Calm Calm - N/A   Partly Cloudy
1:19 AM 44.6 °F 44.6 °F 100% 30.08 in 10.0 mi Calm Calm - N/A   Partly Cloudy
1:53 AM 45.0 °F 44.1 °F 97% 30.08 in 4.0 mi Calm Calm - N/A   Clear
2:47 AM 42.8 °F 42.8 °F 100% 30.09 in 2.5 mi Calm Calm - N/A   Partly Cloudy
2:53 AM 43.0 °F 43.0 °F 100% 30.08 in 3.0 mi Calm Calm - N/A   Clear
3:53 AM 43.0 °F 42.1 °F 97% 30.07 in 10.0 mi North - - N/A   Clear
4:17 AM 42.8 °F 41.0 °F 93% 30.09 in 2.0 mi Calm Calm - N/A   Partly Cloudy
4:25 AM 42.8 °F 41.0 °F 93% 30.08 in 1.0 mi Calm Calm - N/A   Mist
4:32 AM 42.8 °F 41.0 °F 93% 30.08 in 0.5 mi Calm Calm - N/A Fog Fog
4:41 AM 41.0 °F 41.0 °F 100% 30.08 in 1.2 mi Calm Calm - N/A   Scattered Clouds
4:44 AM 41.0 °F 41.0 °F 100% 30.08 in 3.0 mi Calm Calm - N/A   Scattered Clouds
4:47 AM 41.0 °F 41.0 °F 100% 30.08 in 1.8 mi Calm Calm - N/A   Scattered Clouds
4:53 AM 41.0 °F 41.0 °F 100% 30.07 in 1.2 mi Calm Calm - N/A   Partly Cloudy
4:58 AM 41.0 °F 41.0 °F 100% 30.08 in 3.0 mi Calm Calm - N/A   Clear
5:19 AM 39.2 °F 39.2 °F 100% 30.09 in 1.8 mi Calm Calm - N/A   Clear
5:27 AM 41.0 °F 41.0 °F 100% 30.10 in 3.0 mi Calm Calm - N/A   Clear
5:53 AM 41.0 °F 39.9 °F 96% 30.08 in 10.0 mi Calm Calm - N/A   Clear
6:14 AM 39.2 °F 39.2 °F 100% 30.09 in 2.0 mi Calm Calm - N/A   Clear
6:24 AM 41.0 °F 39.2 °F 93% 30.10 in 10.0 mi Calm Calm - N/A   Clear
6:53 AM 39.9 °F 39.0 °F 97% 30.11 in 10.0 mi Calm Calm - N/A   Clear
7:26 AM 39.2 °F 39.2 °F 100% 30.11 in 2.5 mi Calm Calm - N/A   Partly Cloudy
7:29 AM 39.2 °F 39.2 °F 100% 30.10 in 1.0 mi Calm Calm - N/A   Mist
7:36 AM 39.2 °F 39.2 °F 100% 30.11 in 0.2 mi Calm Calm - N/A Fog Fog
7:47 AM 39.2 °F 39.2 °F 100% 30.11 in 2.0 mi Calm Calm - N/A   Mostly Cloudy
7:53 AM 41.0 °F 41.0 °F 100% 30.11 in 9.0 mi Calm Calm - N/A   Clear
8:53 AM 46.9 °F 46.0 °F 97% 30.12 in 10.0 mi Calm Calm - N/A   Clear
9:53 AM 57.0 °F 48.9 °F 74% 30.14 in 10.0 mi Calm Calm - N/A   Clear
10:53 AM 66.9 °F 48.0 °F 51% 30.13 in 10.0 mi SSE 8.1 mph - N/A   Clear
11:53 AM 69.1 °F 45.0 °F 42% 30.12 in 10.0 mi South 5.8 mph - N/A   Clear
12:53 PM 71.1 °F 46.0 °F 41% 30.10 in 10.0 mi South 5.8 mph - N/A   Clear
1:53 PM 73.0 °F 43.0 °F 34% 30.07 in 10.0 mi Variable 3.5 mph - N/A   Clear
2:53 PM 75.0 °F 46.9 °F 37% 30.06 in 10.0 mi Variable 5.8 mph - N/A   Clear
3:53 PM 75.9 °F 45.0 °F 33% 30.04 in 10.0 mi Variable 4.6 mph - N/A   Clear
4:53 PM 75.0 °F 46.9 °F 37% 30.04 in 10.0 mi South 5.8 mph - N/A   Clear
5:53 PM 72.0 °F 48.9 °F 44% 30.05 in 10.0 mi South 8.1 mph - N/A   Clear
6:53 PM 63.0 °F 50.0 °F 63% 30.06 in 10.0 mi SSW 3.5 mph - N/A   Clear
7:53 PM 55.9 °F 50.0 °F 80% 30.07 in 10.0 mi Calm Calm - N/A   Clear
8:53 PM 54.0 °F 50.0 °F 86% 30.08 in 10.0 mi Calm Calm - N/A   Clear
9:53 PM 52.0 °F 50.0 °F 93% 30.07 in 10.0 mi Calm Calm - N/A   Clear
10:53 PM 50.0 °F 48.0 °F 93% 30.06 in 10.0 mi Calm Calm - N/A   Clear
11:53 PM 48.0 °F 46.9 °F 96% 30.07 in 10.0 mi Calm Calm - N/A   Clear